Home   Weather   Kristiansand   Past weeks

Flag for Norway Past Weather in Kristiansand, Norway — Yesterday and Last 2 Weeks

46 °F

Passing clouds.

Feels Like: 43 °F
Forecast: 44 / 51 °F
Wind: 7 mph from West

Location: Kristiansand / Kjevik

Current Time: Oct 29, 2016 at 1:54:57 AM

Latest Report: Oct 29, 2016 at 1:20 AM

Visibility: N/A

Pressure: 30.15 "Hg

Humidity: 66%

Dew Point: 36 °F

Location of KristiansandLocation

Past Weather in Kristiansand — Graph


Kristiansand Temperature Yesterday

Maximum temperature yesterday: 54 °F (at 12:20 AM)
Minimum temperature yesterday: 46 °F (at 8:50 AM)
Average temperature yesterday: 50 °F

High & Low Weather Summary for the Past Weeks

High54 °F (Oct 27, 12:50 PM)100% (Oct 16, 1:50 PM)30.39 "Hg (Oct 16, 1:50 PM)
Low37 °F (Oct 26, 5:20 AM)58% (Oct 28, 12:50 PM)29.83 "Hg (Oct 28, 4:20 AM)
Average45 °F85%30.18 "Hg
* Reported Oct 14 12:20 AM — Oct 29 12:20 AM, Kristiansand, Weather by CustomWeather, © 2016

Note: Actual official high and low records may vary slightly from our data, if they occured in-between our weather recording intervals... More about our weather records


Kristiansand Weather History for the Previous 24 Hours

Scroll right to see more
Time TempWeatherWind HumidityBarometerVisibility
12:20 AM
Sat, Oct 29
45 °FPassing clouds.5 mph71%30.15 "HgN/A
11:50 PM
Fri, Oct 28
46 °FPassing clouds.5 mph66%30.15 "HgN/A
11:20 PM46 °FClear.7 mph66%30.12 "Hg10 mi
10:50 PM46 °FPassing clouds.8 mph66%30.12 "HgN/A
10:20 PM46 °FPassing clouds.9 mph66%30.12 "HgN/A
9:50 PM46 °FPassing clouds.9 mph66%30.12 "HgN/A
9:20 PM46 °FPassing clouds.12 mph66%30.12 "HgN/A
8:50 PM46 °FPassing clouds.13 mph71%30.12 "HgN/A
8:20 PM46 °FPassing clouds.14 mph66%30.12 "HgN/A
7:50 PM46 °FPassing clouds.14 mph71%30.12 "HgN/A
7:20 PM46 °FClear.13 mph71%30.12 "Hg10 mi
6:50 PM46 °FPassing clouds.12 mph66%30.09 "HgN/A
6:20 PM46 °FPassing clouds.13 mph66%30.09 "HgN/A
5:50 PM48 °FPassing clouds.12 mph66%30.09 "HgN/A
5:20 PM50 °FPassing clouds.14 mph58%30.09 "HgN/A
4:50 PM50 °FPassing clouds.15 mph58%30.07 "HgN/A
4:20 PM50 °FPassing clouds.17 mph62%30.07 "HgN/A
3:50 PM50 °FPassing clouds.16 mph62%30.04 "HgN/A
3:20 PM52 °FPassing clouds.16 mph58%30.07 "HgN/A
2:50 PM52 °FScattered clouds.15 mph62%30.07 "HgN/A
2:20 PM52 °FScattered clouds.13 mph62%30.07 "HgN/A
1:50 PM50 °FScattered clouds.17 mph62%30.04 "HgN/A
1:20 PM50 °FPassing clouds.15 mph62%30.04 "HgN/A
12:50 PM52 °FPassing clouds.16 mph58%30.04 "HgN/A
12:20 PM50 °FPassing clouds.17 mph62%30.01 "HgN/A
11:50 AM50 °FPassing clouds.17 mph62%30.01 "HgN/A
11:20 AM50 °FPassing clouds.14 mph62%30.01 "HgN/A
10:50 AM50 °FPassing clouds.14 mph62%29.98 "HgN/A
10:20 AM48 °FPassing clouds.15 mph66%29.98 "HgN/A
9:50 AM48 °FPassing clouds.12 mph71%29.95 "HgN/A
9:20 AM46 °FPassing clouds.14 mph71%29.95 "HgN/A
8:50 AM46 °FPassing clouds.16 mph71%29.92 "HgN/A
8:20 AM48 °FPassing clouds.15 mph66%29.92 "HgN/A
7:50 AM48 °FClear.13 mph71%29.92 "Hg10 mi
7:20 AM48 °FPassing clouds.12 mph71%29.89 "HgN/A
6:50 AM48 °FPassing clouds.10 mph71%29.89 "HgN/A
6:20 AM50 °FPassing clouds.10 mph67%29.89 "HgN/A
5:50 AM50 °FPassing clouds.12 mph71%29.86 "HgN/A
5:20 AM52 °FPassing clouds.12 mph72%29.86 "HgN/A
4:50 AM52 °FPassing clouds.15 mph77%29.83 "HgN/A
4:20 AM52 °FPassing clouds.18 mph77%29.83 "HgN/A
3:50 AM54 °FPassing clouds.17 mph77%29.86 "HgN/A
3:20 AM54 °FPassing clouds.15 mph82%29.86 "HgN/A
2:50 AM54 °FPassing clouds.14 mph82%29.86 "HgN/A
2:20 AM54 °FMostly cloudy.16 mph88%29.86 "Hg5 mi
1:50 AM52 °FPassing clouds.16 mph94%29.86 "HgN/A
1:20 AM54 °FPartly cloudy.15 mph88%29.86 "HgN/A
Weather by CustomWeather, © 2016

See weather overviewHow to use our weather pages